GFSNE_sfc_temp_150.txt.gz
Temp
56 56 56 56 56 56 56 56 54 50 52 50 49 49 48 49 49 48 48 52 52 52 52 52 52 52 53 54 54 54 55 55 56 56 57 58 58 59
53 54 53 53 53 53 53 54 54 53 51 50 46 46 47 48 48 47 47 48 49 50 50 50 51 51 51 52 52 52 53 54 54 55 56 57 57 57
50 49 48 48 47 47 49 50 49 49 51 46 46 46 44 45 45 46 46 45 45 48 49 50 50 50 50 50 50 51 51 52 52 53 53 54 55 55
46 46 46 49 45 44 44 43 42 44 47 46 44 42 42 43 43 43 44 45 44 48 50 49 49 49 50 50 49 49 49 49 49 50 51 52 53 53
44 43 43 45 46 46 45 42 42 46 46 45 41 42 41 41 41 42 39 39 44 49 49 49 49 49 49 49 49 48 47 47 48 49 49 50 51 52
43 42 42 42 43 45 44 40 42 41 44 42 41 39 40 40 38 34 35 37 37 44 46 46 47 48 49 49 48 47 46 47 47 48 48 49 49 50
41 42 40 43 45 45 41 38 37 37 37 36 37 38 37 34 32 34 33 34 35 37 36 36 37 37 39 44 46 47 47 47 47 47 47 48 48 48
41 40 40 42 43 45 45 45 42 37 36 34 33 32 32 32 33 32 32 30 29 35 32 32 35 35 37 38 46 46 46 46 46 46 46 46 46 47
41 41 42 43 42 39 44 44 44 45 44 36 32 32 32 33 33 31 31 30 29 33 32 29 32 32 36 40 43 46 44 45 46 46 45 46 46 46
41 41 40 39 40 40 38 36 35 35 36 39 34 33 33 34 33 33 31 30 31 33 32 25 29 28 32 33 41 44 44 45 45 45 45 45 45 45
41 41 41 39 43 43 38 35 33 34 41 41 41 41 41 40 38 31 26 26 26 28 29 27 27 27 28 29 34 42 43 43 43 44 44 44 43 43
39 40 45 41 44 43 36 34 32 32 33 32 31 35 37 36 38 31 29 22 23 23 31 24 24 26 21 26 29 32 32 39 41 40 41 42 42 38
37 36 37 45 44 43 42 35 35 35 36 32 31 30 31 31 30 30 30 24 23 23 30 29 28 27 25 24 25 26 28 31 32 35 40 40 40 40
36 37 37 44 43 43 41 41 41 39 33 30 29 29 28 27 27 27 29 27 28 27 29 25 20 22 25 25 25 26 29 29 30 33 33 38 39 39
38 40 42 44 43 42 42 42 41 32 30 29 28 26 26 25 25 24 25 27 23 27 31 24 24 17 20 25 25 26 28 28 31 31 33 34 34 34
41 39 41 41 40 37 38 38 34 31 30 27 27 26 25 22 24 21 17 17 14 17 25 21 21 27 27 27 27 26 28 26 27 31 33 34 34 35
37 34 34 32 31 31 31 32 32 31 30 28 27 25 26 29 29 26 19 14 14 14 16 20 26 30 30 28 25 27 27 28 29 31 30 30 32 33
37 34 33 32 32 32 31 31 31 34 31 31 30 28 26 26 27 27 26 26 24 23 14 15 26 27 28 26 32 24 23 25 26 27 29 28 29 32
37 34 33 33 33 33 33 31 31 32 31 30 28 26 25 23 27 25 26 26 25 26 24 25 25 24 22 21 26 34 23 25 26 28 30 30 29 30
38 34 34 34 34 33 33 32 32 31 30 29 28 26 25 25 24 24 25 24 24 24 25 19 16 24 23 22 23 27 33 28 27 28 29 31 33 38
37 36 36 35 34 34 34 34 33 31 30 28 28 26 25 24 24 24 24 28 27 25 23 24 25 31 28 27 22 26 29 34 34 31 30 29 29 30
36 37 36 35 35 34 33 33 32 32 30 29 28 27 27 26 25 24 25 24 25 25 25 25 26 26 25 24 23 25 28 32 35 36 37 36 30 26
36 36 35 34 34 33 33 32 32 31 30 29 28 28 27 25 26 26 25 26 25 24 24 23 25 26 25 25 26 26 27 29 30 30 31 37 37 37

GFSNE_sfc_temp_153.txt.gz
Temp
54 54 53 54 54 55 54 54 52 49 50 49 48 48 47 48 48 47 49 52 53 53 53 52 52 53 54 54 54 54 55 55 56 56 57 58 58 59
50 50 52 52 52 51 51 52 53 51 50 49 45 46 47 47 47 47 47 48 51 51 52 51 51 52 52 52 52 52 53 53 54 54 55 56 56 56
47 47 47 46 45 44 45 45 46 47 50 46 46 45 43 44 45 45 45 45 44 50 50 50 50 50 50 50 50 50 51 51 51 51 52 53 54 55
44 44 44 47 43 43 42 41 41 42 47 46 44 42 42 43 44 43 44 45 43 49 50 49 49 49 49 49 49 49 49 48 49 49 50 51 52 53
42 41 41 42 42 45 42 40 40 43 41 45 41 42 41 41 42 42 42 41 44 48 48 48 49 49 49 50 49 48 47 47 48 48 49 49 51 51
42 40 40 40 39 40 41 38 40 38 39 38 38 38 39 39 37 34 34 35 36 42 44 45 46 46 48 49 48 47 46 47 47 48 48 48 49 49
39 40 39 41 45 43 40 36 36 35 34 34 34 34 33 32 31 32 32 31 33 33 32 34 34 35 38 41 43 46 47 46 46 47 47 47 47 47
39 39 39 42 43 45 45 46 41 36 34 32 30 31 30 30 31 31 30 29 29 33 31 31 33 33 35 36 44 45 45 46 46 47 47 46 46 47
39 38 39 42 41 38 43 43 43 45 42 34 31 30 30 31 31 30 29 29 29 31 30 28 30 30 33 37 42 45 45 45 45 45 46 46 46 46
39 38 37 37 38 38 36 34 34 34 35 37 32 31 32 32 32 32 30 29 30 31 30 24 27 27 29 30 42 44 44 43 43 44 45 44 44 44
39 38 38 37 41 45 36 33 32 33 41 41 41 41 41 41 36 31 26 25 26 26 28 27 26 25 26 27 31 41 40 41 41 40 41 42 43 42
36 37 45 39 43 45 35 32 30 31 32 32 32 36 36 36 38 31 28 21 23 22 27 23 23 24 20 24 27 30 30 36 38 38 40 41 41 38
36 35 37 46 45 45 42 32 33 33 36 31 30 30 30 30 29 29 29 24 18 19 29 23 16 19 18 21 24 24 26 30 30 31 38 40 41 39
37 37 37 43 44 44 42 40 42 39 31 29 29 29 27 27 27 26 28 27 27 25 28 24 22 21 24 24 22 24 27 29 26 27 28 35 38 39
39 39 41 43 44 43 43 42 43 32 30 29 29 27 27 25 26 25 26 28 23 27 31 23 21 24 25 24 24 26 28 28 29 22 27 28 30 31
41 39 41 42 43 39 39 39 33 31 31 29 28 26 25 23 24 24 20 22 18 20 25 21 19 26 26 27 27 26 28 25 27 29 28 30 31 31
40 36 35 34 34 34 32 32 32 32 32 28 25 24 25 26 26 24 22 21 18 16 16 21 24 24 29 26 19 23 24 23 25 25 27 27 29 30
39 35 35 34 34 33 33 33 32 34 32 30 28 27 26 25 24 23 25 24 21 23 21 16 16 19 20 25 31 22 19 19 23 25 26 26 28 32
38 35 34 33 34 34 34 33 32 32 32 31 29 28 26 25 27 23 24 25 24 23 25 26 24 16 17 16 23 34 18 25 26 26 28 29 28 31
38 36 34 34 34 34 34 33 32 31 31 30 29 28 26 25 23 23 23 22 23 24 24 25 22 20 19 20 22 23 32 26 26 26 28 31 32 37
37 36 36 35 34 34 34 33 33 31 31 30 29 27 26 25 25 24 24 27 26 23 22 23 25 31 26 24 18 22 28 34 34 30 30 28 27 29
36 36 36 35 34 33 33 33 32 32 31 29 29 28 27 26 25 25 24 24 23 23 24 25 26 25 23 23 20 23 26 29 33 35 36 34 29 25
35 35 35 34 34 33 33 33 33 32 31 30 29 28 27 25 26 26 25 25 24 24 24 23 24 25 24 21 25 24 24 27 29 28 30 36 37 36

GFSNE_sfc_temp_159.txt.gz
Temp
50 47 47 49 48 49 48 50 50 46 48 48 47 47 47 47 48 47 47 52 54 54 55 54 54 54 55 55 55 55 55 56 56 57 57 57 57 58
47 46 46 46 46 45 45 49 50 49 47 48 45 46 46 47 47 46 46 48 52 53 53 52 52 52 52 52 53 53 53 53 53 54 55 55 56 56
44 43 43 43 42 43 42 42 42 45 46 48 46 45 45 44 45 45 45 43 41 51 52 51 51 51 51 51 51 51 50 51 51 52 52 52 53 54
43 41 41 44 41 41 40 40 39 40 43 45 45 43 41 43 41 43 44 45 41 50 50 50 50 50 50 50 49 49 48 48 49 49 49 50 51 52
42 40 40 39 38 39 39 38 37 40 39 43 44 41 41 41 40 42 40 40 43 45 46 47 49 49 49 49 48 48 47 48 48 48 48 49 50 50
41 39 38 37 37 37 38 36 37 36 36 36 39 38 39 36 36 33 33 32 33 38 40 42 45 47 48 47 46 46 46 47 47 48 48 48 48 48
39 38 37 39 42 41 38 34 33 32 32 32 32 32 32 31 31 30 31 30 30 30 31 32 32 32 35 38 40 44 46 46 47 47 47 47 47 47
38 37 37 41 42 46 46 45 38 32 32 31 30 31 31 30 29 30 30 29 29 29 29 30 31 31 31 32 42 45 45 45 45 45 45 46 46 47
37 37 37 39 40 36 42 45 41 44 42 33 32 31 30 31 30 30 29 29 29 29 29 28 28 29 30 34 42 45 44 43 43 42 42 43 43 44
37 37 36 36 36 36 34 33 34 34 33 36 33 33 32 31 32 32 30 28 29 29 28 24 26 26 28 30 42 42 41 42 41 41 41 42 43 43
38 37 37 36 40 44 34 33 32 32 40 41 39 39 40 39 35 31 26 25 26 26 27 26 25 25 25 27 31 38 38 39 40 39 40 41 42 42
36 38 43 39 43 45 37 32 31 32 32 33 33 36 37 36 39 31 29 22 23 22 27 24 23 23 20 24 26 28 29 35 38 37 38 39 39 35
38 37 38 44 45 45 45 35 34 33 35 31 30 29 30 30 30 31 30 24 18 20 28 22 13 17 15 18 23 23 26 27 28 29 35 36 37 37
39 40 40 43 44 45 45 42 42 41 32 30 29 28 28 28 28 29 29 27 28 26 30 26 15 15 10 12 18 23 21 25 24 24 24 31 34 35
40 42 42 43 44 44 45 45 43 37 32 30 30 29 30 28 27 27 26 27 24 28 31 24 21 15 13 12 16 18 24 23 23 20 20 24 26 27
42 41 41 42 42 41 42 43 39 35 33 32 31 30 27 26 26 25 22 22 22 20 23 20 19 20 25 24 21 23 22 19 19 23 25 26 27 27
39 34 35 34 34 35 35 37 37 35 33 32 30 28 27 27 27 25 24 21 21 19 22 24 24 20 25 22 21 22 23 20 21 23 24 24 26 26
39 33 34 34 33 34 34 34 35 36 34 32 31 29 28 27 26 25 24 23 22 21 21 21 17 19 19 24 28 22 19 20 22 23 23 22 24 26
38 36 34 35 34 33 34 34 33 34 34 33 32 30 29 28 29 26 25 24 24 23 23 24 24 19 9 12 21 32 19 20 25 24 25 24 23 27
37 36 35 35 34 32 32 32 32 32 32 33 32 31 29 28 27 25 25 24 24 23 20 20 18 20 16 12 16 19 31 23 22 22 23 26 29 34
35 35 36 35 34 33 33 33 33 33 33 32 32 31 30 28 27 27 26 28 26 22 21 19 21 29 20 15 16 19 24 31 30 25 25 25 25 27
35 35 35 35 35 33 33 33 32 33 32 32 31 31 30 29 28 27 26 26 26 25 24 20 20 16 12 16 16 16 21 26 30 32 33 32 27 24
34 34 35 35 35 34 33 32 32 32 32 32 32 31 30 29 29 28 27 26 25 24 23 21 18 16 15 17 21 17 18 21 23 24 27 34 36 36

GFSNE_sfc_temp_165.txt.gz
Temp
54 53 53 54 53 53 52 51 48 46 49 55 55 54 53 51 51 50 51 50 54 54 54 54 54 55 56 57 57 57 57 58 58 59 59 59 59 59
53 52 52 52 52 51 51 51 50 48 46 55 55 53 53 52 51 51 50 48 51 53 52 52 52 53 53 54 54 55 55 56 56 57 57 57 57 57
51 50 50 50 49 49 49 49 48 48 45 51 51 52 51 50 50 49 49 49 50 51 51 51 51 51 51 51 52 52 52 53 53 54 55 55 56 56
49 49 49 49 48 48 47 47 47 47 46 45 48 49 48 48 47 47 48 48 47 48 49 50 50 51 50 50 50 50 50 50 51 52 53 53 53 53
49 48 48 48 47 47 46 45 45 45 45 44 44 47 47 46 47 47 47 47 46 44 45 47 50 50 49 49 48 48 48 49 49 49 49 49 49 50
48 47 47 47 46 46 45 45 44 43 43 43 44 44 44 45 43 42 44 43 44 44 42 43 45 46 46 45 45 46 47 48 49 48 48 48 48 48
47 46 46 45 44 45 44 44 42 41 41 40 39 40 41 41 41 42 41 42 42 41 42 44 43 43 43 42 42 44 47 47 46 47 46 46 46 46
46 46 45 43 44 45 46 45 43 41 40 39 40 39 41 40 40 40 39 39 41 38 40 42 42 42 42 42 42 46 46 45 44 44 44 44 44 45
45 45 44 44 44 44 45 47 47 45 44 42 40 40 39 41 40 38 38 39 40 38 37 38 38 39 41 41 41 46 45 44 43 42 42 43 43 44
45 46 46 46 44 43 42 42 43 43 44 44 41 42 42 42 40 41 40 39 38 38 37 36 37 37 39 40 39 44 42 42 41 41 41 42 42 42
44 45 44 44 44 45 40 40 41 41 42 43 42 41 42 42 40 39 36 36 37 38 36 37 36 36 36 38 40 42 40 41 40 40 40 41 41 41
44 43 43 44 44 45 44 41 39 42 40 40 41 42 42 42 41 39 38 34 36 35 36 34 33 33 33 34 35 38 38 37 39 38 38 39 39 40
41 42 43 43 45 46 45 43 42 45 41 40 40 39 38 38 39 39 38 36 33 34 36 34 30 31 30 31 32 33 34 36 37 36 36 37 38 38
41 43 42 42 44 44 45 46 44 43 39 38 36 36 35 35 36 36 35 35 35 34 36 32 31 31 30 30 32 33 33 34 33 33 33 34 36 37
42 42 43 43 43 44 44 44 45 43 38 35 35 35 35 36 33 33 32 32 31 32 33 31 31 28 28 30 29 31 31 33 32 30 31 31 32 34
41 41 42 42 43 42 42 42 41 42 38 37 36 36 34 32 32 32 30 30 30 29 30 30 30 29 28 28 29 29 30 27 31 31 31 31 34 35
43 40 39 38 37 37 36 37 38 37 37 36 35 33 32 31 31 31 30 29 29 28 28 28 29 29 30 30 27 28 28 28 29 29 29 29 32 33
41 37 37 36 36 36 35 35 35 37 36 35 34 33 32 31 31 29 30 28 28 28 27 28 27 27 28 29 31 28 28 27 29 29 29 26 28 34
39 38 36 36 36 35 35 34 34 35 35 34 33 33 33 32 31 29 28 28 28 29 28 28 26 25 23 24 30 33 27 27 27 27 29 28 27 30
37 36 36 36 36 35 35 34 34 34 33 33 33 33 33 32 31 29 29 28 28 28 27 27 26 26 24 24 24 28 31 27 27 26 27 30 32 34
34 34 34 35 35 35 35 34 33 33 33 33 33 33 33 32 31 31 30 30 30 28 26 26 28 30 27 25 23 25 29 31 31 28 28 26 27 30
34 34 34 34 34 34 34 34 33 33 33 33 33 33 33 33 32 31 30 30 30 29 28 28 28 27 24 24 24 23 25 29 32 32 33 31 28 26
34 33 33 34 34 34 34 33 33 33 33 33 33 33 33 32 33 32 31 31 31 28 27 26 26 26 25 24 24 24 23 25 28 28 31 33 34 35

GFSNE_sfc_temp_168.txt.gz
Temp
59 59 58 58 57 57 54 53 51 48 51 57 55 60 61 59 52 56 57 50 53 54 53 53 54 55 56 56 57 57 58 59 59 59 59 59 60 60
59 59 58 59 58 58 56 57 55 50 47 57 56 57 58 59 56 56 55 49 51 53 52 52 52 53 53 54 54 55 56 56 57 57 58 58 58 58
59 57 57 58 57 57 56 55 54 52 47 54 56 55 55 56 57 56 54 55 56 50 51 51 51 51 51 52 52 52 53 54 55 56 56 57 57 56
57 57 56 57 55 56 55 53 53 54 49 47 54 52 50 55 54 53 54 54 54 49 49 50 51 50 50 50 50 50 50 51 52 53 53 53 53 53
57 57 56 56 55 55 54 53 53 52 51 49 50 53 52 54 53 54 52 52 52 45 47 48 50 50 49 49 48 48 49 50 50 49 49 49 50 50
56 56 56 56 55 54 54 53 53 51 51 48 48 49 50 51 48 48 49 49 49 49 44 45 46 47 46 45 45 46 47 49 49 48 48 48 48 48
56 55 54 53 50 52 53 52 51 49 48 47 45 45 45 46 46 49 45 47 47 46 47 46 45 46 47 44 44 45 47 47 47 46 46 46 45 46
52 55 55 48 47 47 47 47 50 49 47 46 46 46 48 49 48 46 46 45 46 46 45 47 46 47 48 47 44 46 47 46 44 44 44 44 44 45
52 52 52 52 49 52 49 47 47 46 47 50 47 48 47 48 47 46 45 45 46 46 45 45 46 45 48 46 42 45 46 45 43 42 42 43 43 44
53 53 53 53 54 51 50 50 50 51 49 48 47 48 50 49 47 47 46 46 46 44 44 40 46 44 47 47 42 43 44 44 42 41 42 42 42 42
53 53 52 51 50 47 47 46 48 49 48 47 47 47 46 44 45 45 40 39 41 43 42 42 43 42 42 44 46 42 43 43 42 41 41 41 41 41
52 51 46 47 47 46 46 48 45 48 49 47 46 45 44 45 43 43 44 37 40 38 42 38 38 38 36 39 41 43 43 40 40 41 40 40 40 41
49 50 51 46 45 45 46 47 47 49 48 47 46 47 46 45 44 43 43 40 37 37 41 39 33 35 33 35 37 38 40 40 41 41 39 39 39 39
48 50 50 45 43 44 45 46 46 46 45 44 43 43 42 42 41 42 41 40 41 37 40 37 33 34 33 33 35 36 36 38 38 36 37 38 38 39
49 47 44 44 44 45 44 44 44 45 42 39 40 40 41 41 38 37 36 36 33 35 36 33 33 32 32 32 34 34 33 36 35 34 35 35 35 37
45 46 45 43 43 43 43 44 43 44 42 39 38 42 40 36 35 36 33 32 32 33 32 32 32 32 31 32 32 32 34 31 34 34 34 34 36 37
43 43 42 41 39 39 39 38 37 37 36 38 37 36 35 35 34 35 33 32 31 32 31 31 31 32 32 31 30 32 33 32 32 32 31 30 34 36
41 39 40 41 40 38 37 37 36 37 36 35 35 34 33 33 33 32 32 32 31 32 32 31 30 29 30 32 33 31 31 31 32 31 31 28 30 36
39 38 36 37 37 37 37 36 35 35 34 34 34 34 33 33 33 32 32 31 31 32 31 32 29 29 27 28 31 34 30 31 31 29 30 30 29 32
40 37 36 37 37 36 36 35 35 34 34 33 33 34 33 33 32 33 32 31 31 31 31 31 30 29 28 29 29 30 32 29 29 28 28 32 34 36
38 36 35 35 35 35 35 35 34 34 33 33 33 33 33 33 32 33 33 32 32 31 30 30 31 33 31 28 25 27 30 31 31 28 29 28 29 31
38 36 35 35 35 35 34 34 34 33 33 33 33 33 33 33 32 33 33 32 32 32 31 32 31 30 27 26 26 27 27 31 33 33 33 32 29 27
39 37 35 35 34 34 34 33 33 33 33 33 33 33 33 32 33 33 34 33 32 31 31 28 29 29 27 27 26 26 26 28 29 29 32 36 35 34

GFSNE_sfc_temp_171.txt.gz
Temp
59 59 57 57 56 55 54 52 49 45 49 57 56 59 57 56 55 53 56 51 53 54 53 53 53 54 55 56 57 58 58 59 60 60 60 60 60 61
60 59 59 58 57 55 54 53 54 50 46 55 56 57 56 56 55 53 54 50 51 52 53 52 52 52 53 53 54 55 56 57 58 59 59 59 59 59
59 58 57 58 57 57 56 55 53 53 47 50 54 55 54 53 55 55 53 52 52 50 51 51 51 51 51 51 51 52 53 54 56 57 57 57 57 57
57 57 57 58 56 56 55 53 52 53 50 47 51 51 52 52 54 51 53 54 50 50 49 50 51 50 50 50 50 50 51 52 52 52 53 54 54 54
57 56 56 56 54 54 54 53 52 53 50 48 47 50 51 51 50 50 50 49 52 46 48 48 50 50 49 49 48 48 49 50 50 49 49 50 50 51
57 56 56 56 55 53 53 53 53 50 49 48 47 46 47 48 47 43 43 46 45 49 47 45 46 47 47 46 46 46 47 49 49 48 48 48 48 48
56 56 55 53 51 52 53 52 51 48 46 44 42 42 42 42 42 44 40 42 44 43 41 42 41 42 43 45 45 45 46 47 47 46 46 46 46 46
53 54 56 50 49 49 50 49 49 47 44 42 41 40 42 43 44 41 40 38 38 41 39 40 41 40 42 41 47 45 47 46 45 44 44 44 45 45
52 52 52 53 50 50 50 48 47 48 48 47 44 44 43 44 44 40 40 38 38 38 38 37 39 38 42 45 45 45 47 46 44 43 43 43 44 44
53 53 52 52 53 51 49 48 48 48 47 47 45 46 46 46 44 42 39 38 40 39 38 32 38 36 40 40 46 45 47 45 44 42 42 42 43 43
53 52 51 50 51 49 47 44 45 47 50 48 48 48 48 47 44 40 35 34 34 36 36 35 35 34 35 35 39 45 45 44 44 43 42 42 42 42
51 51 49 48 47 46 45 44 42 44 45 44 42 43 45 44 45 40 38 34 32 32 36 32 31 31 29 32 34 37 38 43 43 43 42 41 41 35
48 49 50 48 46 45 45 44 44 46 45 42 42 42 41 41 40 40 39 35 33 32 36 33 31 30 28 28 31 32 35 35 36 37 42 41 41 39
46 48 49 45 44 44 44 46 46 45 41 41 39 38 37 36 36 37 37 37 36 34 36 33 31 32 28 26 27 30 30 31 32 31 32 37 39 40
46 45 44 44 44 44 45 45 45 42 40 37 37 36 36 35 35 34 33 33 31 33 34 32 32 29 28 27 27 28 27 30 31 30 31 30 30 31
45 43 44 44 45 44 44 44 43 40 38 37 36 37 35 34 34 34 33 31 29 30 31 32 31 30 27 29 28 27 29 26 29 30 30 30 33 33
42 41 39 39 39 39 38 38 37 36 34 35 35 35 34 34 33 34 33 32 29 28 30 30 31 30 29 26 26 30 29 29 31 29 29 28 31 32
41 38 38 37 36 37 37 37 36 36 35 34 34 34 34 33 33 32 32 32 30 31 31 30 28 27 27 29 33 29 27 27 29 28 27 23 27 32
39 38 37 35 35 35 35 35 35 37 34 33 33 33 33 33 33 32 32 31 30 31 31 31 29 27 25 24 28 35 28 29 28 26 27 26 26 30
39 37 36 36 35 34 34 34 34 34 34 33 33 33 33 33 32 32 32 31 30 31 31 31 29 28 28 27 27 28 33 28 27 26 25 28 31 36
38 38 37 36 35 34 34 34 34 34 34 33 33 33 33 33 32 33 33 34 33 31 29 29 31 35 30 28 24 25 28 32 31 26 25 24 25 27
37 37 37 35 35 34 34 33 33 33 33 33 33 33 33 33 32 33 33 32 32 32 31 32 31 30 26 26 25 25 26 29 33 34 34 31 23 21
35 35 37 36 35 34 34 33 33 33 33 33 33 33 33 32 33 32 32 33 32 31 31 28 28 28 26 26 26 24 24 25 27 28 29 36 36 35

GFSNE_sfc_temp_174.txt.gz
Temp
51 51 50 51 53 55 53 52 48 44 43 46 47 51 51 54 53 52 48 53 53 54 54 53 53 53 54 55 56 57 58 59 60 60 61 61 61 62
51 50 50 50 50 51 52 52 51 48 44 45 46 47 49 52 53 52 50 51 52 53 52 52 52 52 53 53 53 54 56 57 59 60 60 60 60 60
50 50 50 51 49 49 49 52 51 50 47 47 45 47 47 47 48 49 52 46 45 51 51 51 51 51 51 51 51 52 54 55 56 57 57 57 57 58
49 49 49 53 48 48 47 47 47 47 44 44 43 43 45 45 45 45 49 50 46 50 50 50 51 51 50 50 50 50 51 51 52 52 53 54 54 55
49 49 48 48 46 46 46 46 45 48 44 42 42 43 43 44 43 44 44 43 47 49 50 50 50 50 50 49 48 48 50 50 50 49 50 50 51 52
49 49 48 48 47 46 46 45 46 44 42 41 40 40 40 42 40 39 38 40 40 46 48 47 47 48 48 47 47 46 47 49 49 48 48 47 48 49
47 49 48 48 49 49 47 44 44 42 41 39 37 37 37 37 37 38 36 36 37 38 36 37 37 37 38 46 45 46 47 48 47 46 46 46 46 46
44 46 48 48 47 50 51 49 46 41 39 37 36 35 36 37 38 36 35 33 33 36 34 34 36 35 37 37 45 47 47 47 46 45 44 44 45 45
43 44 46 49 48 46 48 49 48 49 48 41 38 37 37 39 39 36 34 33 33 35 34 32 33 33 36 42 47 46 46 47 45 44 43 43 44 44
44 44 44 44 45 46 43 42 42 42 44 45 43 43 40 41 39 38 36 34 34 35 34 29 31 31 34 35 47 46 46 46 46 44 43 43 43 43
45 45 45 44 47 47 42 40 39 40 47 48 46 46 46 48 43 36 32 29 29 31 31 32 31 31 31 31 34 46 45 47 45 45 43 43 43 43
42 44 47 46 48 47 41 38 36 37 39 39 39 41 44 42 46 36 33 29 28 27 32 29 27 27 25 27 30 33 35 45 45 44 44 44 43 35
40 41 44 48 46 46 45 40 39 41 41 37 37 36 36 36 36 36 34 32 28 29 33 29 26 23 21 23 26 27 31 33 33 36 42 43 42 40
39 41 41 45 45 45 44 44 45 45 37 36 36 37 36 36 34 34 34 33 33 34 33 30 21 23 21 19 24 27 26 28 29 27 28 37 40 41
44 44 45 45 44 44 44 45 44 39 37 35 36 36 35 37 35 34 31 31 29 32 33 28 24 26 21 18 21 23 24 28 27 26 26 27 28 29
44 42 43 44 44 44 43 41 38 38 37 35 35 35 34 33 33 34 33 31 28 22 28 31 29 24 20 22 21 21 25 23 25 26 25 27 31 31
42 39 38 37 34 35 37 35 33 33 31 33 33 34 34 34 33 33 33 31 28 20 27 29 28 28 25 21 20 27 27 25 25 26 24 24 29 30
41 38 36 36 35 32 33 34 34 36 34 34 34 33 33 33 33 32 33 32 30 28 26 29 28 27 26 26 31 26 23 24 25 25 25 23 26 29
39 38 37 36 36 34 34 34 34 34 34 33 33 33 33 33 33 32 32 32 29 29 30 29 27 25 21 20 27 35 27 26 25 25 26 25 24 29
39 38 37 37 35 34 34 34 34 33 33 33 33 33 33 33 32 32 32 31 31 28 29 30 28 27 27 24 23 26 34 24 24 23 22 26 30 35
36 37 38 37 36 35 34 34 33 33 33 33 33 33 33 33 32 33 33 34 33 28 28 29 31 35 29 26 23 23 27 33 31 24 23 21 24 26
35 36 36 36 35 35 34 33 33 33 33 33 33 33 33 33 32 33 32 32 32 32 30 25 29 30 23 25 19 22 25 28 32 34 34 30 20 19
33 35 35 35 35 35 34 33 33 33 33 33 33 33 33 32 33 33 32 32 32 29 29 28 29 24 24 25 24 21 22 24 25 26 28 35 35 35

GFSNE_sfc_temp_177.txt.gz
Temp
48 48 48 49 49 49 50 51 48 44 42 44 45 48 49 49 50 48 48 52 54 54 54 54 53 53 54 54 55 56 58 60 60 61 61 62 62 62
49 48 48 48 48 48 48 49 51 48 44 44 44 45 47 50 50 49 48 51 52 54 53 52 52 52 52 52 53 54 56 58 58 59 60 60 61 61
48 47 48 48 47 47 48 51 49 48 46 50 44 45 45 45 46 46 47 45 45 52 52 52 52 52 52 51 51 52 54 54 55 56 57 58 58 59
47 46 47 51 46 46 46 46 47 46 46 45 44 42 43 44 44 43 46 48 44 49 52 51 51 51 51 50 49 50 51 51 51 52 53 54 55 56
46 46 46 46 45 44 44 45 45 47 43 44 44 41 41 42 42 42 42 41 45 48 52 51 51 51 50 49 48 48 49 50 49 49 50 51 52 53
45 45 45 45 45 44 44 43 45 43 41 41 41 39 39 40 38 37 37 37 39 44 47 48 47 48 50 49 48 47 47 48 49 48 48 47 48 49
43 44 45 45 47 48 47 43 42 41 40 39 37 36 36 36 36 36 35 35 36 36 35 36 37 37 38 46 45 46 47 48 48 46 46 46 46 47
41 42 43 45 46 49 50 49 46 40 38 37 36 35 35 36 36 35 33 33 33 35 33 34 35 34 35 36 44 46 47 47 47 45 45 45 45 45
40 41 43 46 46 44 47 48 49 49 48 40 39 37 36 37 37 34 33 33 33 35 34 32 33 33 34 39 46 47 47 47 47 45 44 44 44 44
40 41 41 41 43 44 42 41 40 41 42 43 41 42 39 39 38 38 36 33 33 33 33 29 30 31 32 33 44 47 47 47 47 45 44 43 43 43
41 41 41 41 45 48 41 38 38 38 44 47 46 46 46 46 42 34 32 30 30 31 31 32 31 31 30 30 33 44 46 46 47 46 45 44 43 43
39 40 44 45 48 47 39 37 35 35 37 37 38 39 43 42 47 37 34 29 27 28 32 30 26 28 26 27 29 32 33 45 46 47 45 45 44 35
37 38 40 45 45 45 45 38 37 39 39 36 36 36 35 35 35 36 33 32 26 31 33 28 27 22 20 22 25 26 30 32 33 36 44 44 44 41
38 43 43 44 44 45 44 44 45 44 37 35 35 35 35 35 36 36 36 33 33 33 33 29 20 22 16 17 23 25 24 27 29 26 27 36 41 42
40 43 44 44 44 43 45 44 44 40 37 35 35 35 35 36 35 34 33 34 33 33 34 31 25 27 18 17 20 22 23 25 24 23 23 26 27 29
42 42 44 43 44 42 40 41 38 35 36 34 32 34 34 33 33 34 33 32 32 30 31 31 28 23 17 21 21 19 22 22 21 22 24 26 29 30
41 40 40 39 35 36 35 34 34 34 32 33 33 33 33 33 34 33 33 32 31 28 28 28 30 28 24 23 19 24 25 24 22 22 24 22 29 31
40 38 37 38 36 34 33 34 34 35 34 33 33 33 33 33 33 32 32 32 31 31 29 27 28 27 25 26 31 26 22 23 21 23 24 20 27 31
37 37 36 37 37 36 34 34 33 34 34 33 33 33 33 33 33 33 32 32 31 31 29 26 27 25 22 21 25 35 20 20 22 22 24 24 23 30
33 35 36 36 37 36 35 34 33 33 33 33 33 33 33 33 33 32 32 32 31 31 29 30 27 27 25 19 19 22 34 21 22 24 20 24 29 34
36 34 32 34 35 35 34 34 34 33 33 33 33 33 33 33 32 33 33 34 33 31 29 28 31 35 26 28 22 21 24 34 30 23 24 22 22 25
36 34 34 34 34 34 34 34 33 33 33 33 33 33 33 33 32 33 33 32 32 33 31 27 23 31 27 26 19 18 22 27 32 34 34 30 19 16
34 34 34 35 34 34 34 34 33 33 33 33 33 33 33 32 33 33 33 33 32 32 30 26 29 28 24 24 23 21 20 21 23 24 27 34 35 35

GFSNE_sfc_temp_183.txt.gz
Temp
45 45 44 46 45 46 46 46 46 44 46 42 43 46 47 46 48 47 46 50 54 55 56 55 54 53 54 53 54 55 57 57 58 60 61 61 62 63
46 45 44 45 45 45 45 46 46 46 44 47 43 44 45 48 48 47 46 49 51 54 55 54 53 53 53 52 52 53 54 55 57 58 59 60 61 61
43 43 44 44 43 43 44 44 45 47 45 49 45 44 43 45 46 45 45 44 43 50 53 54 54 52 52 52 51 51 52 52 53 55 56 58 59 60
42 42 42 46 42 42 42 42 43 45 46 44 45 44 42 43 43 42 45 46 42 48 51 53 53 52 52 51 50 49 50 50 50 51 53 55 56 57
41 41 41 41 40 40 41 41 41 44 43 45 44 42 41 40 40 40 41 40 43 47 50 51 52 53 52 51 50 49 48 49 49 49 49 50 52 53
41 41 40 40 39 39 40 40 41 40 39 40 42 40 39 39 37 37 37 36 38 42 45 46 48 48 50 51 51 49 47 48 49 48 47 48 48 50
40 40 40 41 44 44 43 40 39 38 37 38 41 38 36 35 36 36 34 34 35 35 34 35 35 36 37 43 46 48 47 48 48 48 47 47 47 47
38 39 39 41 42 46 47 48 45 39 37 37 41 40 42 39 35 35 33 33 34 33 33 34 34 34 35 34 43 46 47 48 48 48 46 46 45 46
37 37 38 42 41 39 42 46 45 47 47 39 40 38 36 36 35 33 32 33 32 34 33 32 32 33 34 38 45 46 47 47 48 48 46 45 45 45
37 37 36 37 38 40 39 38 38 38 39 40 39 40 38 38 37 37 34 32 32 32 32 29 30 31 33 33 42 46 47 47 47 48 46 45 44 44
38 37 37 37 42 46 39 36 35 36 42 44 45 45 46 46 42 33 31 29 30 30 30 31 29 30 30 30 32 42 46 47 47 47 47 45 44 44
37 37 42 41 45 45 40 36 34 34 35 36 35 37 39 38 44 38 33 29 30 32 30 29 26 26 26 26 29 31 33 43 47 47 47 47 46 40
36 36 37 43 45 45 45 41 40 41 40 39 38 36 34 34 34 37 37 36 33 34 35 30 21 22 20 24 26 26 29 31 33 35 43 46 46 43
36 37 37 42 44 45 45 44 44 44 39 37 35 35 35 36 36 36 36 36 36 36 37 34 32 26 19 19 24 26 24 26 28 27 28 36 41 43
37 39 42 43 43 42 43 45 45 40 37 35 34 34 33 34 34 34 33 35 33 34 35 33 33 29 27 25 22 22 25 25 24 24 22 26 27 28
39 37 40 42 42 42 42 40 38 37 36 35 34 34 33 33 33 33 33 33 32 33 33 33 33 31 29 28 27 21 23 25 21 22 24 26 29 28
40 36 35 34 33 35 36 36 35 34 33 32 33 33 33 33 33 33 33 33 32 32 31 31 32 31 30 27 27 26 26 23 22 21 23 22 26 28
36 31 30 30 32 35 34 35 34 35 34 34 33 33 33 32 33 32 33 32 32 32 32 31 29 27 26 27 31 26 24 24 21 21 22 17 21 26
31 30 30 32 34 35 35 34 33 34 34 33 33 33 33 32 33 33 33 32 32 32 32 31 28 26 20 17 26 35 24 23 19 19 22 24 18 24
29 29 29 29 31 33 34 33 34 33 30 33 33 33 33 32 32 32 32 32 32 32 32 30 28 25 24 22 22 22 33 21 19 23 17 22 26 33
30 32 32 30 31 33 33 34 33 33 33 33 33 33 33 32 32 32 32 34 34 32 31 30 30 35 29 27 26 24 26 33 28 19 26 27 26 23
32 31 30 30 31 32 33 33 33 33 33 33 33 33 33 32 32 32 32 32 32 33 33 33 31 32 28 25 21 19 21 24 31 34 34 32 18 12
32 31 30 30 29 32 32 32 32 32 33 33 33 33 33 32 33 33 32 32 32 32 32 31 29 29 29 27 25 21 20 20 21 21 24 34 35 35

GFSNE_sfc_temp_189.txt.gz
Temp
51 51 51 52 52 52 51 50 46 43 48 56 54 57 57 57 57 58 57 54 54 55 56 56 56 56 55 55 54 54 55 55 56 58 60 61 62 63
51 50 50 51 51 51 50 50 49 46 43 54 55 56 57 56 56 56 56 51 52 54 55 55 55 55 54 54 54 53 53 53 54 56 59 60 60 61
49 49 49 49 49 49 49 49 48 48 43 48 53 55 54 54 55 56 55 55 55 51 53 54 54 54 54 54 53 52 52 52 52 54 56 57 58 59
48 47 47 49 47 48 48 47 47 49 46 44 50 50 51 53 53 52 53 53 54 52 51 53 53 54 54 53 53 52 51 51 50 51 53 55 56 57
47 46 47 46 46 47 46 46 46 46 47 44 44 49 49 50 50 51 50 52 51 49 50 52 53 53 53 53 52 51 50 50 50 49 49 51 53 54
46 46 46 46 45 45 45 44 45 44 45 43 43 44 46 48 47 46 46 48 49 50 49 49 50 50 51 53 52 50 49 49 50 49 48 49 50 51
46 45 46 45 44 45 45 46 45 42 41 40 40 41 42 42 42 47 42 45 45 47 48 49 48 49 50 51 50 49 49 49 49 49 49 48 48 49
44 45 46 43 44 45 46 46 46 43 41 40 40 41 43 44 44 42 40 40 40 42 44 46 45 47 48 48 47 47 49 49 49 49 48 48 47 47
44 43 43 45 44 44 43 44 44 45 45 44 42 42 42 44 44 41 39 38 39 41 40 42 45 46 48 46 45 46 47 48 49 49 48 47 47 46
43 43 42 43 44 42 43 43 43 43 43 43 43 44 45 46 43 42 40 39 39 39 38 36 44 44 46 46 43 45 47 48 48 48 48 47 46 46
43 43 42 42 43 44 43 41 42 42 44 45 45 45 45 45 45 40 36 35 36 37 36 37 41 41 42 44 44 41 45 47 48 48 48 47 45 45
43 42 42 43 44 45 43 42 39 41 42 41 41 42 43 42 43 40 39 35 35 35 37 36 36 37 38 39 40 41 43 43 47 48 48 47 46 45
40 40 42 42 44 44 44 44 42 44 43 43 41 40 40 39 39 39 38 37 35 36 39 37 33 33 34 37 37 38 40 42 46 47 47 47 47 45
40 41 41 41 42 43 44 44 44 44 43 41 37 37 38 38 37 38 38 37 37 36 38 36 33 34 33 32 34 35 37 38 39 40 41 42 44 47
40 40 42 42 42 42 42 43 43 42 40 37 36 37 38 38 37 35 35 36 34 35 37 34 34 33 33 33 34 34 35 35 35 36 37 39 41 42
39 39 40 41 41 41 40 40 40 40 38 37 36 37 37 34 35 35 33 34 32 35 35 34 34 33 33 33 33 33 35 34 33 34 35 36 37 39
40 39 37 36 36 36 36 36 37 37 35 35 34 33 34 34 34 35 34 33 32 33 33 33 33 33 33 32 31 32 33 33 34 33 33 34 36 37
39 36 35 34 33 33 33 34 35 36 35 34 33 34 33 33 33 33 33 32 32 33 33 33 32 30 30 33 35 33 32 33 33 32 32 31 33 37
36 35 33 33 33 33 33 33 33 35 35 34 34 34 33 33 33 33 33 33 32 33 33 33 32 31 29 29 34 36 32 31 31 30 31 31 31 34
35 33 33 33 32 32 32 32 32 33 33 34 34 34 33 33 32 32 32 32 32 33 33 33 32 32 31 31 31 33 35 31 30 30 29 29 32 33
32 32 33 32 33 33 33 32 32 32 32 32 33 33 33 33 32 33 33 34 34 33 32 32 33 37 32 31 29 30 32 33 32 31 29 30 30 30
32 32 32 33 33 33 33 31 29 30 31 31 31 32 33 33 33 32 33 32 33 33 33 34 33 32 30 30 31 30 30 30 33 32 34 34 29 27
32 32 32 33 33 32 31 31 30 31 31 31 31 32 32 32 33 33 33 32 32 32 32 32 32 32 31 31 31 29 28 28 29 30 31 34 35 34

GFSNE_sfc_temp_192.txt.gz
Temp
58 57 58 59 59 58 57 56 50 44 50 59 59 64 63 64 62 63 63 59 57 56 57 57 57 57 57 56 56 56 55 55 56 57 59 61 61 63
58 57 57 58 58 58 56 56 55 50 43 54 57 60 61 62 61 61 61 55 56 55 55 55 55 55 55 56 55 55 54 54 54 55 58 59 60 61
57 56 55 57 56 57 56 55 54 54 48 51 55 58 58 58 59 61 60 60 60 56 55 55 54 54 55 55 55 54 54 53 53 53 55 57 59 59
54 54 54 56 54 55 55 53 53 54 51 48 53 54 55 57 58 56 57 59 59 57 55 53 53 54 54 54 54 54 53 52 52 51 52 54 56 57
53 53 53 53 52 53 53 52 52 53 51 49 49 53 54 56 53 53 53 56 58 53 53 52 52 53 53 54 54 53 52 51 51 50 50 50 52 55
53 53 52 52 51 51 51 51 51 50 50 49 49 46 48 50 48 45 46 54 54 57 54 52 52 53 52 53 53 51 51 50 50 50 49 49 50 51
52 53 52 50 46 47 48 50 50 49 45 41 40 41 42 45 46 47 44 47 50 51 51 54 54 55 55 51 51 50 50 50 50 50 49 49 49 50
50 51 52 49 49 48 47 46 47 46 43 41 41 40 42 44 45 43 42 40 40 50 47 49 52 51 53 54 52 51 50 50 50 50 49 49 48 48
49 49 49 51 49 50 49 47 46 45 45 45 41 41 41 44 45 43 41 40 40 44 40 40 47 49 54 53 48 47 48 49 49 49 49 48 48 47
49 50 49 49 50 48 47 47 48 48 48 47 47 46 44 44 43 43 43 41 42 43 40 35 45 46 52 52 48 46 47 47 48 49 49 48 47 47
49 50 49 48 47 46 44 43 45 47 49 46 45 45 46 46 45 42 37 35 35 39 40 38 41 41 47 48 50 42 44 46 48 48 48 48 46 46
48 49 47 47 44 44 45 44 44 46 47 47 47 47 47 45 44 42 39 35 35 34 41 37 39 40 39 43 45 46 46 44 47 48 48 48 46 47
44 46 47 46 44 43 44 45 44 47 46 45 43 44 46 44 44 43 39 37 34 35 39 36 36 35 35 39 41 42 44 46 47 48 48 48 46 46
43 45 46 44 43 43 44 44 44 44 45 43 41 42 41 41 42 42 42 39 38 36 38 36 33 34 34 34 36 39 41 43 45 45 46 47 47 46
43 44 42 42 42 43 43 43 42 44 43 40 39 40 40 41 40 39 38 36 35 36 37 34 33 34 33 33 35 36 36 36 37 39 41 43 43 43
42 43 43 42 41 42 42 43 43 42 41 38 38 40 40 37 37 37 35 34 33 34 35 34 34 33 33 33 34 34 35 34 36 36 37 39 42 43
42 42 41 41 40 39 39 39 40 40 38 39 37 35 35 36 35 36 34 33 33 33 34 34 33 32 33 33 32 33 33 34 36 35 35 36 38 40
40 38 38 39 37 36 37 37 37 37 37 37 36 35 34 34 34 34 33 33 32 33 33 34 33 32 32 33 35 34 34 34 34 33 34 33 35 39
38 38 37 38 37 37 36 36 35 36 36 35 34 34 34 34 34 33 33 32 32 32 33 34 33 32 31 31 33 36 33 33 33 32 33 33 34 37
38 37 36 36 36 35 36 35 34 35 34 34 33 34 33 33 33 33 33 32 32 33 33 33 33 32 31 32 32 33 35 33 33 33 32 33 34 33
37 36 36 35 35 35 35 35 34 33 33 32 32 32 33 33 32 34 33 35 34 33 32 33 34 38 33 33 31 31 32 34 34 33 32 31 31 31
35 35 36 36 35 35 34 34 33 33 32 32 31 32 32 32 32 33 34 33 34 33 33 34 35 33 31 31 32 32 31 32 33 33 33 33 31 29
32 33 33 34 34 34 34 33 32 32 32 32 32 32 32 31 33 33 33 34 33 33 33 32 33 32 32 32 32 32 30 30 31 30 31 34 33 34

GFSNE_sfc_temp_198.txt.gz
Temp
47 47 47 48 48 48 48 46 43 40 42 44 46 49 50 51 52 53 52 55 58 59 59 59 58 58 58 58 58 58 59 58 58 57 57 58 59 60
49 47 47 47 47 47 46 46 45 44 40 44 46 47 50 54 53 51 51 53 55 58 58 57 57 57 57 57 57 57 57 57 57 57 57 57 58 59
46 46 46 47 45 45 45 45 44 44 42 46 45 46 46 47 50 48 49 49 48 54 56 55 56 56 56 55 55 56 56 57 57 57 56 56 57 58
45 44 45 50 44 43 43 43 42 43 43 42 45 42 44 45 44 43 48 52 49 53 54 54 55 55 55 55 54 54 54 55 55 55 55 54 54 55
44 43 43 43 41 41 41 41 41 46 43 43 42 43 42 41 42 45 46 46 50 51 52 54 54 54 55 55 54 53 53 53 53 53 53 52 52 53
43 43 43 42 41 40 41 39 43 39 40 41 41 40 39 41 39 39 40 44 45 50 50 51 52 52 53 54 54 52 51 52 53 53 52 51 50 51
41 43 44 44 46 46 46 41 39 39 38 37 38 39 40 42 40 42 41 40 42 45 46 43 43 43 47 49 50 50 50 51 52 52 52 51 50 50
40 42 42 45 44 49 49 49 47 39 37 38 39 38 39 41 42 39 40 38 35 41 38 40 42 42 43 44 48 50 50 50 51 51 51 51 50 49
39 40 42 47 45 42 45 47 45 47 47 42 38 38 38 41 40 37 36 34 36 42 40 38 42 41 43 46 49 50 51 50 50 50 50 50 49 49
39 40 40 39 40 42 40 38 38 39 41 43 41 40 40 41 38 39 37 35 37 41 41 35 40 39 43 42 46 48 50 49 49 50 49 49 49 48
40 40 39 38 43 47 41 36 36 37 44 46 46 46 46 47 46 38 34 33 33 36 38 36 38 37 39 40 43 46 49 48 47 48 49 49 48 48
37 40 44 43 46 46 39 35 33 35 37 38 39 40 42 40 45 38 34 33 32 32 36 34 35 35 33 36 35 38 37 44 45 46 48 48 48 43
37 37 39 44 45 45 44 36 36 40 40 37 36 36 37 36 36 36 36 35 33 33 38 35 33 33 32 33 34 35 36 37 39 42 47 48 48 44
36 37 37 42 43 43 42 42 43 43 36 34 32 31 31 32 32 34 35 35 34 33 37 37 32 32 32 32 32 33 33 35 36 34 36 45 47 46
38 39 42 42 43 42 42 43 43 36 34 30 29 29 28 32 32 31 32 32 30 33 37 35 34 33 32 31 32 33 33 32 33 34 35 37 39 41
39 36 40 41 42 41 40 39 37 35 32 29 27 27 29 32 28 27 24 26 23 28 34 34 34 33 32 32 32 32 33 32 32 32 33 34 37 38
39 37 33 33 33 34 34 33 33 31 29 31 27 29 29 27 31 32 30 25 20 21 28 33 34 33 33 32 30 32 32 32 33 32 32 32 34 36
36 32 31 30 30 31 32 31 30 33 31 29 32 30 30 29 27 31 30 28 27 23 24 30 33 32 31 31 35 31 32 32 32 32 31 31 31 33
32 30 30 31 31 32 31 30 28 31 30 28 30 28 29 30 31 30 30 30 27 26 26 31 31 30 28 27 30 37 31 32 31 31 31 31 31 32
31 30 31 31 31 31 31 29 28 28 26 28 28 26 29 28 27 25 26 27 28 23 21 20 23 29 30 27 29 31 35 32 32 31 30 31 32 35
31 31 32 31 31 31 31 30 30 28 28 27 22 23 22 24 21 24 24 31 31 27 22 19 25 37 32 32 30 28 29 34 33 32 29 29 28 29
31 31 31 31 30 30 31 31 29 29 29 28 26 24 24 23 27 26 25 23 24 26 27 22 21 28 31 30 29 26 27 30 33 33 34 33 28 25
31 31 30 30 30 30 30 28 26 28 30 30 27 26 25 26 27 26 26 26 23 23 26 21 18 21 25 29 31 27 26 27 28 28 30 34 33 33

GFSNE_sfc_temp_201.txt.gz
Temp
45 45 44 45 45 45 44 43 40 38 39 42 42 48 49 48 50 49 48 53 56 57 58 58 56 57 58 59 59 59 59 59 59 59 59 59 59 59
46 44 43 44 43 43 42 43 42 41 37 41 43 44 47 51 52 49 47 51 52 55 55 55 55 55 56 56 57 57 57 57 58 59 59 59 58 58
43 43 43 43 42 41 41 41 41 40 39 42 42 43 42 43 46 46 46 45 45 52 53 54 54 54 54 55 56 56 56 56 57 58 58 58 58 57
41 41 41 47 40 40 39 39 39 39 38 38 40 41 40 43 41 44 48 49 47 50 52 53 53 54 54 54 54 54 54 54 55 55 56 57 56 56
40 39 40 40 39 39 38 37 38 43 38 37 38 40 39 40 41 40 41 42 46 49 51 52 52 53 53 53 52 53 53 54 53 53 54 54 55 54
40 39 39 39 39 38 39 37 39 36 36 37 37 39 36 39 37 37 38 42 41 46 47 48 50 50 51 51 51 49 49 51 53 53 53 52 52 52
38 40 40 41 44 45 44 39 37 35 35 35 35 37 37 37 36 38 39 40 39 39 41 41 40 42 44 47 48 48 49 50 51 52 52 52 51 51
37 39 40 41 41 46 48 48 46 37 34 33 33 34 35 36 38 37 36 34 32 37 35 38 39 42 43 44 47 48 48 49 50 51 51 51 51 50
36 37 38 43 42 40 43 45 45 46 46 37 34 34 35 37 37 35 34 33 34 38 36 36 37 38 43 45 46 47 47 48 49 50 50 50 50 50
37 37 35 37 39 40 38 36 36 37 38 39 36 37 36 37 36 37 36 37 33 35 37 31 34 38 41 41 45 45 46 47 47 49 48 48 49 49
37 36 36 36 40 44 39 35 34 35 42 44 44 44 45 45 44 38 32 28 31 30 34 33 32 32 36 38 41 44 45 44 45 48 48 48 48 48
36 36 41 41 44 44 39 33 31 33 34 35 36 37 39 37 42 36 32 32 33 32 33 33 34 34 32 36 36 39 38 42 41 43 46 45 47 45
36 36 37 42 43 43 43 36 35 38 38 36 33 32 33 33 33 34 34 34 32 29 33 32 33 33 32 32 34 35 37 36 36 38 41 44 45 45
36 38 36 41 42 42 42 43 43 42 35 32 30 29 29 30 30 35 35 33 32 32 32 32 32 32 32 31 31 34 35 36 35 34 36 41 43 45
39 39 41 42 42 41 41 42 42 37 34 29 29 28 27 28 30 32 32 31 29 30 34 29 33 33 32 31 31 32 33 34 34 32 34 35 37 39
38 36 39 41 41 40 39 37 35 34 33 33 28 27 26 25 26 26 22 26 19 23 29 29 31 32 32 32 32 31 33 31 33 33 33 34 36 38
37 35 34 32 32 31 32 32 32 32 31 30 31 31 31 30 27 24 23 20 22 18 19 25 28 33 33 32 30 32 31 32 33 33 32 32 33 35
35 31 31 30 29 30 30 31 31 32 31 31 29 30 31 27 24 22 25 22 22 23 20 22 25 30 32 30 35 30 31 32 32 32 31 30 31 33
32 31 30 30 30 31 31 31 30 32 31 27 25 25 26 27 27 20 24 28 26 26 24 21 17 28 24 25 29 37 31 32 32 31 31 30 29 31
29 29 29 30 30 30 30 31 31 31 29 27 24 24 24 27 20 18 21 21 23 20 18 16 16 14 26 25 26 32 35 32 31 31 31 31 32 35
30 29 30 31 30 30 30 30 30 29 28 25 23 26 25 21 19 21 23 30 30 21 20 18 23 33 27 32 29 30 30 33 33 31 27 27 27 28
30 30 29 31 30 30 29 29 30 28 28 28 27 27 28 25 21 23 25 22 22 22 21 23 24 23 28 28 26 28 27 28 33 34 34 33 28 25
30 30 29 30 30 30 30 29 28 27 26 26 28 29 26 25 26 27 26 25 25 21 22 22 16 21 27 23 27 23 23 25 27 28 30 33 33 34

GFSNE_sfc_temp_204.txt.gz
Temp
43 43 43 44 43 43 42 41 38 33 36 39 40 45 47 47 47 48 46 50 54 55 55 55 55 55 56 56 57 57 58 59 59 59 60 60 60 60
44 42 41 42 41 40 40 40 39 36 34 38 39 41 43 48 49 48 46 49 50 53 53 53 53 54 54 55 55 56 56 57 58 59 59 60 60 60
41 40 40 40 39 39 38 38 38 37 36 38 39 40 39 40 43 45 46 44 43 50 52 52 52 53 53 54 54 54 54 55 56 57 58 58 60 60
39 39 39 43 38 37 36 36 36 36 35 36 37 36 37 39 39 38 44 47 44 47 50 51 51 52 52 53 53 53 53 53 53 55 55 56 57 58
39 38 37 37 35 35 35 35 35 40 36 34 35 36 36 37 37 38 38 39 44 47 49 49 50 50 51 50 51 50 50 50 51 52 52 53 54 56
39 38 37 36 35 35 36 35 38 34 34 34 35 34 34 36 34 34 36 39 40 45 46 46 48 48 48 49 49 48 48 48 49 50 51 51 52 53
37 38 39 39 43 43 41 37 35 34 33 32 32 32 33 35 34 37 35 36 37 38 38 38 38 41 41 45 45 46 48 48 48 49 50 51 52 52
36 37 37 40 39 44 45 45 44 37 32 31 30 30 31 32 34 34 33 34 33 36 32 35 36 38 39 40 45 47 47 47 48 48 48 49 50 51
35 36 36 41 41 36 39 42 41 44 45 36 31 31 31 33 34 32 32 32 33 37 35 34 35 34 38 42 44 45 45 46 46 46 47 48 48 50
36 35 35 35 35 37 35 33 35 35 36 37 34 34 34 35 35 35 33 33 37 39 33 31 31 32 35 38 43 44 45 46 46 46 45 46 48 48
35 34 33 33 38 43 37 33 33 34 41 43 44 44 44 44 43 35 31 31 32 35 35 33 31 29 32 36 37 43 44 44 44 44 43 43 45 47
35 35 40 41 43 44 38 32 30 33 32 33 35 36 38 35 41 34 30 30 32 30 34 31 30 29 27 30 32 39 35 41 43 42 41 42 43 43
34 35 36 42 43 44 44 35 34 36 37 35 33 32 31 31 31 32 31 33 31 30 32 30 27 31 30 30 30 37 36 37 38 38 39 40 41 42
35 35 34 40 42 42 42 42 42 42 34 31 30 31 29 31 30 30 32 32 33 31 33 30 26 23 27 28 29 34 35 36 36 35 34 37 39 42
36 38 40 40 40 40 41 41 42 36 31 30 30 31 30 30 29 28 30 30 28 29 33 27 25 28 30 29 29 31 33 34 35 33 34 33 33 37
36 33 36 39 39 39 38 37 33 33 32 30 30 31 27 29 30 27 20 20 18 25 29 27 26 26 29 31 32 31 32 30 33 33 33 33 33 37
38 34 31 32 32 31 31 32 32 31 30 30 28 29 30 31 30 25 20 16 23 20 20 24 27 29 31 31 30 31 31 32 33 33 32 32 33 33
34 27 28 28 28 28 28 29 30 32 31 30 30 30 30 28 26 23 22 16 17 21 19 19 16 25 31 27 35 30 31 31 33 33 32 30 30 32
27 27 28 28 28 29 28 29 29 30 32 31 29 29 27 26 28 22 21 19 22 23 21 18 13 15 23 23 26 37 30 32 32 31 31 31 30 31
27 27 28 29 29 30 30 29 29 29 29 29 29 28 26 25 22 21 20 13 17 19 16 13 13 16 19 25 26 30 35 32 31 30 31 31 32 35
30 30 31 30 29 29 29 27 27 28 30 29 27 27 27 24 23 21 19 29 29 21 22 18 21 32 28 28 18 27 30 35 33 31 30 25 25 27
30 30 29 30 29 30 30 29 28 26 24 24 26 26 26 24 25 26 23 25 21 21 20 21 23 19 26 21 21 23 26 29 32 34 34 32 24 23
28 28 28 28 30 30 29 28 28 28 25 25 22 25 28 24 25 26 28 27 25 19 18 20 14 22 26 26 26 22 21 26 26 26 28 33 33 34